Location: Trebic
(49.2170°N, 15.8830°E)
Time: 20:33:45
(UTC+02:00)

Transit 4A - Pass Details

Date: 24 July 2019
Orbit: 863 x 981 km, 66.8° (Epoch: 24 August)

Event Time Altitude Azimuth Distance (km) Brightness Sun altitude
Exits shadow 01:56:14 35° 190° (S) 1,533 8.5 -19.8°
Maximum altitude 01:59:01 67° 120° (ESE) 1,062 8.1 -19.7°
Drops below altitude 10° 02:05:23 10° 40° (NE) 2,740 11.3 -19.4°
Sets 02:07:58 0° 38° (NE) 3,687 12.3 -19.3°
